Regional Weather Roundup
Issued by NWS

Home | Current Version | Previous Version | Graphics & Text | Print | Product List | Glossary On
Versions: 1 2 3 4 5 6 7 8 9 10 11 12 13 14 15 16 17 18 19 20 21 22 23 24 25 26 27
000
ASUS45 KCYS 170610
RWRWY

WYOMING REGIONAL WEATHER ROUNDUP
NATIONAL WEATHER SERVICE CHEYENNE WY
1100 PM MST MON JAN 16 2017

NOTE:  "FAIR" INDICATES FEW OR NO CLOUDS BELOW 12,000 FEET
WITH NO SIGNIFICANT WEATHER AND/OR OBSTRUCTIONS TO VISIBILITY.

WYZ001-170700-
YELLOWSTONE NATIONAL PARK

CITY           SKY/WX    TMP DP  RH WIND       PRES   REMARKS
LK YELLOWSTONE   N/A     -7 -10  87 CALM      30.17S
6HR MIN TEMP:  -8; 6HR MAX TEMP:   2;

W YELLOWSTONE  NOT AVBL

$$
WYZ002>013-054>058-071-098>099-170700-
NORTHERN WYOMING

CITY           SKY/WX    TMP DP  RH WIND       PRES   REMARKS
JACKSON        FAIR      -9 -11  92 N8        30.23S WCI -26
CODY           FAIR       8   1  73 VRB3      30.02
GREYBULL       FAIR     -10 -15  78 CALM      30.13F
6HR MIN TEMP: -13; 6HR MAX TEMP:  -2;

WORLAND        FAIR      -8 -10  91 CALM      30.10F
6HR MIN TEMP:  -8; 6HR MAX TEMP:   6;

SHERIDAN       FAIR      12   4  70 CALM      30.02F
6HR MIN TEMP:   7; 6HR MAX TEMP:  25;

BUFFALO        FAIR      24   4  42 CALM      30.02S
6HR MIN TEMP:  21; 6HR MAX TEMP:  31;

GILLETTE         N/A     14   6  70 N3        30.05S
6HR MIN TEMP:  13; 6HR MAX TEMP:  22;

HULETT         FAIR      18   9  68 MISG      30.06S
NEWCASTLE      FAIR      19   9  63 N6        30.08S WCI  11

$$
WYZ014>020-022>026-101>103-170700-
CENTRAL WYOMING

CITY           SKY/WX    TMP DP  RH WIND       PRES   REMARKS
BIG PINEY      FAIR     -12 -12 100 E3        30.18R
6HR MIN TEMP: -19; 6HR MAX TEMP:  -2;

PINEDALE       FAIR     -22 -27  76 W5        30.18S WCI -36
DUBOIS         NOT AVBL
LANDER         FAIR       4   1  88 CALM      30.09S
6HR MIN TEMP:   3; 6HR MAX TEMP:  14;

RIVERTON       FAIR      -3  -7  82 N5        30.11S WCI -13
6HR MIN TEMP:  -3; 6HR MAX TEMP:   6;

CASPER         FAIR      21   8  57 SW14      30.07R WCI   8
6HR MIN TEMP:  17; 6HR MAX TEMP:  26;

DOUGLAS        FAIR      12   8  84 CALM      30.08S
6HR MIN TEMP:  12; 6HR MAX TEMP:  28;


$$
WYZ021-027>030-104>119-170700-
SOUTHERN WYOMING

CITY           SKY/WX    TMP DP  RH WIND       PRES   REMARKS
EVANSTON       FAIR      10   3  73 CALM      30.16F
6HR MIN TEMP:   5; 6HR MAX TEMP:  11;

ROCK SPRINGS   FOG       -2  -6  83 SW3       30.16S VSB 1
6HR MIN TEMP:  -5; 6HR MAX TEMP:   3;

RAWLINS        FAIR       0  -6  76 CALM      30.12F
6HR MIN TEMP:  -2; 6HR MAX TEMP:  10;

LARAMIE        FOG        7   5  91 CALM      30.07S VSB 1/4
6HR MIN TEMP:   5; 6HR MAX TEMP:  21;

CHEYENNE       FAIR      17  10  74 W9        30.07S WCI   6
6HR MIN TEMP:  16; 6HR MAX TEMP:  33;

TORRINGTON     FAIR      25  14  63 NW5       30.09S WCI  19
6HR MIN TEMP:  21; 6HR MAX TEMP:  38;


$$




USA.gov is the U.S. government's official web portal to all federal, state and local government web resources and services.